Regional Weather Roundup
Issued by NWS

Home | Current Version | Previous Version | Graphics & Text | Print | Product List | Glossary On
Versions: 1 2 3 4 5 6 7 8 9 10 11 12 13 14 15 16 17 18 19 20 21 22 23 24 25 26 27
000
ASUS43 KDMX 171607
RWRIA

WEATHER ROUNDUP FOR IOWA
NATIONAL WEATHER SERVICE DES MOINES IA
1100 AM CDT THU APR 17 2014

NOTE: "FAIR" INDICATES FEW OR NO CLOUDS BELOW 12,000 FEET WITH NO
SIGNIFICANT WEATHER AND/OR OBSTRUCTIONS TO VISIBILITY.

* - THESE STATIONS ARE NOT NWS STATIONS...THUS NOT UNDER NWS
QUALITY CONTROL.  THEY ALSO DO NOT REPORT WEATHER SUCH
AS PRECIPITATION OR FOG.

IAZ001>003-012>014-020>022-031>034-043>046-171700-
   NORTHWEST IOWA

CITY           SKY/WX    TMP DP  RH WIND       PRES   REMARKS
CARROLL *      SUNNY     39  27  60 NW13G20   30.30R WCI  32
CHEROKEE *     SUNNY     37  28  70 NW13      30.32R WCI  29
DENISON *      MOSUNNY   37  27  65 VRB7G16   30.30R WCI  32
LE MARS *      SUNNY     36  25  64 N10G16    30.34R WCI  28
ORANGE CITY *  SUNNY     36  25  64 N9G16     30.31S WCI  29
SHELDON *      MOSUNNY   34  27  75 N16       30.30S WCI  23
SIOUX CITY     SUNNY     39  25  57 NW6       30.33S WCI  35
SPENCER        PTSUNNY   34  25  69 N17       30.30S WCI  23
STORM LAKE *   MOSUNNY   36  27  69 N13       30.30R WCI  27
$$

IAZ055>058-069>071-079>083-090>094-171700-
   SOUTHWEST IOWA

CITY           SKY/WX    TMP DP  RH WIND       PRES   REMARKS
ATLANTIC *     PTSUNNY   37  27  65 VRB5G15   30.32S WCI  34
AUDUBON *      MOSUNNY   37  27  65 NW8       30.32R WCI  31
CLARINDA *     CLOUDY    37  28  70 N13       30.35S WCI  29
COUNCIL BLFS * MOSUNNY   36  27  69 NE7G13    30.33S WCI  30
CRESTON *      CLOUDY    36  28  75 NW9       30.31S WCI  29
HARLAN  *      PTSUNNY   36  27  69 VRB6      30.36R WCI  31
LAMONI         CLOUDY    37  28  70 NW14      30.30R WCI  28
RED OAK *      CLOUDY    37  27  65 VRB5G14   30.34S WCI  34
SHENANDOAH *   CLOUDY    36  27  69 N7G14     30.36S WCI  30
$$

IAZ047>049-059>061-072>074-084-171700-
   CENTRAL IOWA

CITY           SKY/WX    TMP DP  RH WIND       PRES   REMARKS
AMES           CLOUDY    35  28  75 NW12      30.30R WCI  27
ANKENY *       CLOUDY    36  28  75 NW12      30.31R WCI  27
CHARITON *     CLOUDY    37  30  75 NW9G15    30.30R WCI  31
DES MOINES     CLOUDY    38  27  64 NW14      30.31R WCI  30
GRINNELL*      CLOUDY    37  30  75 W15       30.28R WCI  28
KNOXVILLE *    CLOUDY    37  28  70 NW15      30.30R WCI  28
MARSHALLTOWN   CLOUDY    36  30  79 NW18      30.26R WCI  26
NEWTON *       CLOUDY    36  28  75 NW14      30.30R WCI  27
PELLA *        PTSUNNY   37  30  75 NW10      30.31R WCI  30
PERRY *        CLOUDY    37  27  65 NW13      30.32R WCI  29
$$

IAZ004>006-015-016-023>025-035-036-171700-
   NORTH CENTRAL IOWA

CITY           SKY/WX    TMP DP  RH WIND       PRES   REMARKS
ALGONA *       CLOUDY    30  27  86 N13G20    30.30R WCI  20
CLARION *      CLOUDY    32  27  80 NW15      30.27S WCI  22
ESTHERVILLE    CLOUDY    30  28  92 N16       30.28S WCI  19
FORT DODGE *   CLOUDY    36  25  64 NW12G20   30.29S WCI  27
MASON CITY     CLOUDY    33  28  81 NW17      30.27R WCI  22
FOREST CITY *  CLOUDY    32  30  93 NW12      30.27R WCI  23
IOWA FALLS *   CLOUDY    34  30  86 NW15      30.28R WCI  24
$$

IAZ007>011-017>019-026>030-037>042-050>054-066-171700-
   NORTHEAST IOWA

CITY           SKY/WX    TMP DP  RH WIND       PRES   REMARKS
CEDAR RAPIDS   CLOUDY    39  30  70 NW14      30.24R WCI  31
CHARLES CITY * CLOUDY    37  30  75 NW17      30.24R WCI  28
CLINTON *      PTSUNNY   45  34  65 W10G18    30.24R
DECORAH *      CLOUDY    37  34  87 NW9G17    30.19R WCI  31
DUBUQUE        CLOUDY    42  34  73 W14       30.19R
MONTICELLO *   PTSUNNY   43  34  70 W14       30.21R
OELWEIN *      CLOUDY   N/A N/A N/A NW17      30.22R
WATERLOO       CLOUDY    38  30  73 NW15      30.23R WCI  29
$$

IAZ064-065-067-068-078-171700-
   EAST CENTRAL IOWA

CITY           SKY/WX    TMP DP  RH WIND       PRES   REMARKS
DAVENPORT      CLOUDY    44  33  65 W17       30.23R
IOWA CITY      CLOUDY    40  32  73 NW10      30.27R WCI  33
MT. PLEASANT * CLOUDY    43  32  65 NW10      30.26R
MUSCATINE *    CLOUDY    43  32  65 W13       30.26R
QUAD CITIES    CLOUDY    45  34  65 W12       30.23R
$$

IAZ062-063-075>077-085>089-095>099-171700-
   SOUTHEAST IOWA

CITY           SKY/WX    TMP DP  RH WIND       PRES   REMARKS
BURLINGTON     CLOUDY    43  34  70 NW8       30.25R
FAIRFIELD *    CLOUDY    41  30  65 NW16      30.27S
FORT MADISON * CLOUDY    43  36  75 W10       30.27R
KEOKUK *       CLOUDY    45  34  65 NW9       30.26R
OSKALOOSA *    CLOUDY    39  32  75 NW10G21   30.29R WCI  32
CENTERVILLE *  MOSUNNY   39  32  75 NW14      30.30R WCI  31
OTTUMWA        CLOUDY    39  30  70 NW16      30.28R WCI  30
WASHINGTON *   CLOUDY    41  32  70 NW17      30.27R
$$

ABBREVIATIONS USED IN REMARKS
   TC - TEMPERATURES IN CELSIUS
  WCI - WIND CHILL INDEX
   HX - HEAT INDEX
  VSB - VISIBILITY
$$




USA.gov is the U.S. government's official web portal to all federal, state and local government web resources and services.